TimeEDT,TemperatureF,Dew PointF,Humidity,Sea Level PressureIn,VisibilityMPH,Wind Direction,Wind SpeedMPH,Gust SpeedMPH,PrecipitationIn,Events,Conditions,WindDirDegrees,DateUTC
12:15 AM,55.4,39.2,54,30.37,10.0,SE,10.4,-,N/A,,Clear,140,2013-05-04 04:15:00
12:35 AM,53.6,39.2,58,30.37,10.0,ESE,5.8,-,N/A,,Clear,120,2013-05-04 04:35:00
12:55 AM,51.8,39.2,62,30.36,10.0,SE,8.1,-,N/A,,Clear,130,2013-05-04 04:55:00
1:15 AM,51.8,39.2,62,30.36,10.0,SE,8.1,-,N/A,,Clear,130,2013-05-04 05:15:00
1:55 AM,50.0,39.2,66,30.35,10.0,ESE,9.2,-,N/A,,Clear,120,2013-05-04 05:55:00
2:15 AM,46.4,39.2,76,30.34,10.0,SE,5.8,-,N/A,,Clear,140,2013-05-04 06:15:00
2:35 AM,48.2,39.2,71,30.34,10.0,ESE,8.1,-,N/A,,Clear,110,2013-05-04 06:35:00
2:55 AM,48.2,39.2,71,30.34,10.0,ESE,10.4,-,N/A,,Clear,110,2013-05-04 06:55:00
3:15 AM,46.4,39.2,76,30.33,10.0,SE,8.1,-,N/A,,Clear,130,2013-05-04 07:15:00
3:35 AM,44.6,39.2,81,30.34,10.0,ESE,6.9,-,N/A,,Clear,110,2013-05-04 07:35:00
4:15 AM,44.6,37.4,76,30.34,10.0,SE,8.1,-,N/A,,Clear,130,2013-05-04 08:15:00
4:35 AM,42.8,37.4,81,30.34,10.0,ESE,6.9,-,N/A,,Clear,120,2013-05-04 08:35:00
4:55 AM,42.8,37.4,81,30.34,10.0,ESE,8.1,-,N/A,,Clear,120,2013-05-04 08:55:00
5:15 AM,42.8,37.4,81,30.34,10.0,ESE,8.1,-,N/A,,Clear,120,2013-05-04 09:15:00
5:35 AM,42.8,37.4,81,30.35,10.0,ESE,10.4,-,N/A,,Clear,120,2013-05-04 09:35:00
5:55 AM,42.8,37.4,81,30.35,10.0,SE,9.2,-,N/A,,Clear,130,2013-05-04 09:55:00
6:15 AM,42.8,37.4,81,30.35,10.0,SE,8.1,-,N/A,,Clear,130,2013-05-04 10:15:00
6:35 AM,42.8,37.4,81,30.36,10.0,ESE,9.2,-,N/A,,Clear,120,2013-05-04 10:35:00
6:55 AM,44.6,37.4,76,30.36,10.0,SE,9.2,-,N/A,,Clear,130,2013-05-04 10:55:00
7:15 AM,44.6,37.4,76,30.35,10.0,ESE,8.1,-,N/A,,Clear,120,2013-05-04 11:15:00
7:35 AM,46.4,39.2,76,30.35,10.0,ESE,5.8,-,N/A,,Clear,120,2013-05-04 11:35:00
7:55 AM,48.2,39.2,71,30.35,10.0,Calm,Calm,-,N/A,,Clear,0,2013-05-04 11:55:00
8:15 AM,51.8,41.0,67,30.35,10.0,Calm,Calm,-,N/A,,Clear,0,2013-05-04 12:15:00
8:35 AM,53.6,42.8,67,30.35,10.0,Calm,Calm,-,N/A,,Clear,0,2013-05-04 12:35:00
9:15 AM,57.2,42.8,59,30.34,10.0,Calm,Calm,-,N/A,,Clear,0,2013-05-04 13:15:00
9:35 AM,59.0,42.8,55,30.34,10.0,WNW,5.8,-,N/A,,Clear,290,2013-05-04 13:35:00
9:55 AM,60.8,42.8,52,30.34,10.0,NNW,4.6,-,N/A,,Clear,330,2013-05-04 13:55:00
10:15 AM,60.8,41.0,48,30.33,10.0,NE,4.6,-,N/A,,Clear,40,2013-05-04 14:15:00
10:35 AM,62.6,41.0,45,30.32,10.0,West,5.8,-,N/A,,Clear,280,2013-05-04 14:35:00
10:55 AM,64.4,39.2,40,30.31,10.0,WNW,4.6,-,N/A,,Clear,290,2013-05-04 14:55:00
11:16 AM,66.2,42.8,43,30.31,6.0,WSW,5.8,-,N/A,,Partly Cloudy,240,2013-05-04 15:16:00
11:55 AM,66.2,39.2,37,30.29,10.0,WNW,5.8,-,N/A,,Partly Cloudy,290,2013-05-04 15:55:00
12:15 PM,68.0,39.2,35,30.28,10.0,South,3.5,-,N/A,,Clear,170,2013-05-04 16:15:00
12:35 PM,69.8,39.2,33,30.27,10.0,West,4.6,-,N/A,,Clear,280,2013-05-04 16:35:00
12:55 PM,69.8,35.6,28,30.26,10.0,WNW,5.8,-,N/A,,Clear,300,2013-05-04 16:55:00
1:15 PM,69.8,37.4,31,30.26,10.0,NW,6.9,-,N/A,,Clear,310,2013-05-04 17:15:00
1:35 PM,71.6,33.8,25,30.25,10.0,SSW,8.1,16.1,N/A,,Clear,210,2013-05-04 17:35:00
1:55 PM,71.6,30.2,22,30.25,10.0,Calm,Calm,-,N/A,,Clear,0,2013-05-04 17:55:00
2:15 PM,73.4,33.8,23,30.24,10.0,East,16.1,21.9,N/A,,Clear,90,2013-05-04 18:15:00
2:55 PM,73.4,30.2,20,30.23,10.0,SE,12.7,-,N/A,,Clear,140,2013-05-04 18:55:00
3:15 PM,73.4,30.2,20,30.22,10.0,SE,9.2,20.7,N/A,,Clear,140,2013-05-04 19:15:00
3:35 PM,73.4,28.4,19,30.21,10.0,South,10.4,-,N/A,,Clear,180,2013-05-04 19:35:00
3:55 PM,73.4,28.4,19,30.21,10.0,SSE,5.8,-,N/A,,Clear,150,2013-05-04 19:55:00
4:15 PM,73.4,30.2,20,30.20,10.0,SE,6.9,16.1,N/A,,Clear,140,2013-05-04 20:15:00
4:55 PM,73.4,30.2,20,30.20,10.0,SE,13.8,-,N/A,,Clear,130,2013-05-04 20:55:00
5:15 PM,73.4,28.4,19,30.20,10.0,SE,11.5,19.6,N/A,,Clear,140,2013-05-04 21:15:00
5:55 PM,73.4,26.6,18,30.20,10.0,SE,10.4,16.1,N/A,,Clear,140,2013-05-04 21:55:00
6:15 PM,71.6,26.6,19,30.20,10.0,SE,10.4,-,N/A,,Clear,130,2013-05-04 22:15:00
6:35 PM,71.6,26.6,19,30.19,10.0,SSE,11.5,-,N/A,,Clear,160,2013-05-04 22:35:00
6:55 PM,71.6,24.8,17,30.19,10.0,South,11.5,-,N/A,,Clear,170,2013-05-04 22:55:00
7:15 PM,69.8,26.6,20,30.20,10.0,SE,11.5,-,N/A,,Clear,130,2013-05-04 23:15:00
7:35 PM,68.0,26.6,21,30.20,10.0,SE,10.4,-,N/A,,Clear,130,2013-05-04 23:35:00
8:15 PM,66.2,26.6,23,30.21,10.0,ESE,8.1,-,N/A,,Clear,110,2013-05-05 00:15:00
8:35 PM,64.4,26.6,24,30.21,10.0,ESE,10.4,-,N/A,,Clear,120,2013-05-05 00:35:00
8:55 PM,62.6,28.4,27,30.22,10.0,SE,9.2,-,N/A,,Clear,130,2013-05-05 00:55:00
9:15 PM,60.8,28.4,29,30.23,10.0,SE,11.5,-,N/A,,Clear,130,2013-05-05 01:15:00
9:35 PM,60.8,28.4,29,30.24,10.0,SE,10.4,-,N/A,,Clear,130,2013-05-05 01:35:00
9:55 PM,60.8,30.2,31,30.24,10.0,SE,15.0,-,N/A,,Clear,130,2013-05-05 01:55:00
10:15 PM,59.0,32.0,36,30.24,10.0,SE,10.4,-,N/A,,Clear,140,2013-05-05 02:15:00
10:55 PM,57.2,33.8,41,30.25,10.0,South,9.2,16.1,N/A,,Clear,170,2013-05-05 02:55:00
11:15 PM,57.2,32.0,38,30.25,10.0,South,9.2,-,N/A,,Clear,170,2013-05-05 03:15:00
11:35 PM,57.2,30.2,36,30.25,10.0,SSE,11.5,-,N/A,,Clear,160,2013-05-05 03:35:00
11:55 PM,55.4,30.2,38,30.25,10.0,SSE,15.0,-,N/A,,Clear,160,2013-05-05 03:55:00